Weather History for Mitchell, SD

Change the Weather History Date:

Thursday, October 3, 2013

  Actual Average Record
Temperature  
Mean Temperature 54 °F 55 °F  
Max Temperature 57 °F 68 °F 96 °F (1938)
Min Temperature 51 °F 42 °F 27 °F (1950)
Degree Days  
Heating Degree Days 11 11  
Month to date heating degree days 16 31  
Since 1 July heating degree days 77 189  
Cooling Degree Days 0 1  
Month to date cooling degree days 0 3  
Year to date cooling degree days 944 820  
Growing Degree Days 4 (Base 50)    
Moisture  
Dew Point 52 °F    
Average Humidity 92    
Maximum Humidity 100    
Minimum Humidity 83    
Precipitation  
Precipitation 0.38 in 0.07 in 1.19 in (1903)
Month to date precipitation 0.38 0.20  
Year to date precipitation 21.31 18.87  
Snow  
Snow 0.00 in - 0.00 in ()
Month to date snowfall 0.0  
Since 1 July snowfall 0.0  
Since 1 September snowfall 0.0  
Snow Depth 0.00 in    
Sea Level Pressure  
Sea Level Pressure 29.87 in    
Wind  
Wind Speed 10 mph (NNE)    
Max Wind Speed 20 mph    
Max Gust Speed 26 mph    
Visibility 9 miles    
Events Rain    
T = Trace of Precipitation, MM = Missing Value Source: NWS Daily Summary

Daily Weather History Graph

Daily Weather History Graph

Search for Another Location

Airport:

Trip Planner

Search our weather history database for the weather conditions in past years. The results will help you decide how hot, cold, wet, or windy it might be!

Date:

Astronomy

Oct. 03, 2013 Rise Set
Actual Time 7:32 AM CDT 7:08 PM CDT
Civil Twilight 7:03 AM CDT 7:37 PM CDT
Nautical Twilight 6:30 AM CDT 8:10 PM CDT
Astronomical Twilight 5:56 AM CDT 8:44 PM CDT
Moon 6:05 AM CDT (10/3) 6:18 PM CDT (10/3)
Length of Visible Light 12h 33m
Length of Day
11h 36m
Waning Crescent, 2% of the Moon is Illuminated
Oct 3
Waning Crescent
Oct 4
New
Oct 11
First Quarter
Oct 18
Full
Oct 26
Last Quarter

Hourly Weather History & Observations

Time (CDT) Temp. Dew Point Humidity Pressure Visibility Wind Dir Wind Speed Gust Speed Precip Events Conditions
12:53 AM 53.1 °F 48.9 °F 86% 29.84 in 10.0 mi North 11.5 mph - N/A   Clear
1:53 AM 52.0 °F 48.9 °F 89% 29.85 in 10.0 mi North 9.2 mph - N/A   Clear
2:31 AM 51.8 °F 50.0 °F 94% 29.87 in 10.0 mi North 11.5 mph - N/A   Mostly Cloudy
2:42 AM 53.6 °F 50.0 °F 88% 29.86 in 10.0 mi North 11.5 mph - N/A   Overcast
2:53 AM 53.1 °F 50.0 °F 89% 29.85 in 10.0 mi North 9.2 mph - N/A   Overcast
3:53 AM 53.1 °F 51.1 °F 93% 29.84 in 10.0 mi NNE 6.9 mph - N/A   Overcast
4:38 AM 53.6 °F 51.8 °F 94% 29.84 in 10.0 mi NNE 8.1 mph - N/A   Overcast
4:53 AM 54.0 °F 51.1 °F 90% 29.83 in 10.0 mi NNE 10.4 mph - N/A   Overcast
5:53 AM 54.0 °F 51.1 °F 90% 29.83 in 10.0 mi NNE 6.9 mph - N/A   Overcast
6:53 AM 55.0 °F 51.1 °F 86% 29.83 in 10.0 mi NNE 8.1 mph - N/A   Overcast
7:53 AM 55.0 °F 51.1 °F 86% 29.83 in 10.0 mi North 5.8 mph - N/A   Overcast
8:29 AM 55.4 °F 51.8 °F 88% 29.85 in 10.0 mi NNE 5.8 mph - N/A   Overcast
8:53 AM 55.0 °F 51.1 °F 86% 29.86 in 10.0 mi North 8.1 mph - N/A   Overcast
9:02 AM 55.4 °F 51.8 °F 88% 29.85 in 10.0 mi North 4.6 mph - N/A   Overcast
9:53 AM 55.0 °F 51.1 °F 86% 29.88 in 10.0 mi NNW 11.5 mph - N/A   Overcast
10:45 AM 53.6 °F 50.0 °F 88% 29.91 in 5.0 mi NW 16.1 mph 25.3 mph N/A   Overcast
10:53 AM 52.0 °F 50.0 °F 93% 29.92 in 2.5 mi NNW 15.0 mph 24.2 mph N/A   Overcast
11:11 AM 51.8 °F 51.8 °F 100% 29.90 in 4.0 mi North 13.8 mph 26.5 mph N/A   Overcast
11:25 AM 51.8 °F 50.0 °F 94% 29.91 in 10.0 mi North 10.4 mph - 0.00 in Rain Light Rain
11:46 AM 51.8 °F 51.8 °F 100% 29.88 in 9.0 mi NNE 12.7 mph 18.4 mph 0.01 in Rain Light Rain
11:53 AM 52.0 °F 51.1 °F 97% 29.89 in 10.0 mi NNE 10.4 mph - 0.01 in Rain Light Rain
12:12 PM 53.6 °F 51.8 °F 94% 29.88 in 10.0 mi NNE 10.4 mph - 0.00 in Rain Light Rain
12:53 PM 53.1 °F 52.0 °F 96% 29.89 in 2.5 mi NE 9.2 mph - 0.09 in Rain Heavy Rain
1:15 PM 53.6 °F 53.6 °F 100% 29.87 in 3.0 mi ENE 4.6 mph - 0.09 in Rain Heavy Rain
1:27 PM 53.6 °F 53.6 °F 100% 29.85 in 4.0 mi ENE 11.5 mph - 0.13 in Rain Rain
1:53 PM 54.0 °F 54.0 °F 100% 29.83 in 3.0 mi East 13.8 mph - 0.24 in Rain Rain
2:53 PM 55.9 °F 55.9 °F 100% 29.83 in 10.0 mi ENE 8.1 mph - 0.04 in   Overcast
3:53 PM 57.0 °F 55.0 °F 93% 29.87 in 10.0 mi NNE 3.5 mph - N/A   Overcast
4:53 PM 57.0 °F 54.0 °F 89% 29.87 in 10.0 mi NNE 5.8 mph - N/A   Overcast
5:53 PM 57.0 °F 54.0 °F 89% 29.88 in 10.0 mi North 8.1 mph - N/A   Overcast
6:53 PM 55.9 °F 54.0 °F 93% 29.89 in 10.0 mi North 10.4 mph - N/A   Overcast
7:53 PM 55.9 °F 53.1 °F 90% 29.91 in 10.0 mi NE 8.1 mph - N/A   Overcast
8:53 PM 55.9 °F 53.1 °F 90% 29.94 in 10.0 mi NE 10.4 mph - N/A   Overcast
9:53 PM 55.0 °F 53.1 °F 93% 29.94 in 10.0 mi NE 12.7 mph - N/A   Overcast
11:53 PM 55.0 °F 52.0 °F 89% 29.90 in 10.0 mi NE 13.8 mph 21.9 mph N/A   Overcast